| DS18B20 | SHTC3 | ||||||
|---|---|---|---|---|---|---|---|
| ID | Date d/m/Y & Time | data1 สูง | data2 ต่ำ | data3 นอก | temp pcb | hum pcb | Time |
| 8561 | 03/04/2026 23:45:43 | 27.9  | 28.1  | 25.2  | 28.0  | 69.0  | 23:45 |
| 8560 | 03/04/2026 23:41:02 | 27.9  | 28.1  | 25.2  | 27.9  | 68.9  | 23:41 |
| 8559 | 03/04/2026 23:36:21 | 28.0  | 28.1  | 25.2  | 28.0  | 68.9  | 23:36 |
| 8558 | 03/04/2026 23:31:39 | 28.0  | 28.2  | 25.2  | 28.0  | 68.8  | 23:31 |
| 8557 | 03/04/2026 23:26:57 | 28.1  | 28.2  | 25.4  | 28.1  | 68.9  | 23:26 |
| 8556 | 03/04/2026 23:22:16 | 28.1  | 28.2  | 25.2  | 28.1  | 68.8  | 23:22 |
| 8555 | 03/04/2026 23:17:32 | 28.2  | 28.3  | 25.2  | 28.1  | 68.8  | 23:17 |
| 8554 | 03/04/2026 23:12:49 | 28.1  | 28.3  | 25.1  | 28.1  | 68.7  | 23:12 |
| 8553 | 03/04/2026 23:08:07 | 28.2  | 28.4  | 25.1  | 28.1  | 68.7  | 23:08 |
| 8552 | 03/04/2026 23:03:25 | 28.2  | 28.4  | 25.2  | 28.1  | 68.5  | 23:03 |
| 8551 | 03/04/2026 22:58:43 | 28.2  | 28.4  | 25.2  | 28.1  | 68.7  | 22:58 |
| 8550 | 03/04/2026 22:54:02 | 28.2  | 28.4  | 25.4  | 28.3  | 68.5  | 22:54 |
| 8549 | 03/04/2026 22:49:20 | 28.3  | 28.5  | 25.9  | 28.4  | 68.5  | 22:49 |
| 8548 | 03/04/2026 22:44:37 | 28.3  | 28.5  | 26.0  | 28.4  | 68.5  | 22:44 |
| 8547 | 03/04/2026 22:39:56 | 28.4  | 28.6  | 26.1  | 28.4  | 68.5  | 22:39 |
| 8546 | 03/04/2026 22:35:15 | 28.4  | 28.6  | 26.1  | 28.4  | 68.5  | 22:35 |
| 8545 | 03/04/2026 22:30:33 | 28.4  | 28.6  | 26.1  | 28.4  | 68.4  | 22:30 |
| 8544 | 03/04/2026 22:25:52 | 28.4  | 28.6  | 25.9  | 28.5  | 68.4  | 22:25 |
| 8543 | 03/04/2026 22:21:08 | 28.5  | 28.7  | 26.2  | 28.6  | 68.2  | 22:21 |
| 8542 | 03/04/2026 22:16:26 | 28.5  | 28.8  | 26.1  | 28.5  | 68.3  | 22:16 |
| 8541 | 03/04/2026 22:11:44 | 28.6  | 28.8  | 26.1  | 28.5  | 68.3  | 22:11 |
| 8540 | 03/04/2026 22:07:03 | 28.6  | 28.8  | 26.2  | 28.4  | 68.1  | 22:07 |
| 8539 | 03/04/2026 22:02:21 | 28.6  | 28.8  | 26.3  | 28.6  | 68.2  | 22:02 |
| 8538 | 03/04/2026 21:57:38 | 28.6  | 28.9  | 26.0  | 28.6  | 68.1  | 21:57 |